1486987201.25,22360,11.31,74236.5,2.21,-42.31,-42.05,0,*7E
1486987202.51,22361,11.31,74236.3,2.21,-42.69,-42.63,0,*72
1486987203.74,22362,11.31,74238.3,2.21,-42.63,-42.51,0,*7A
1486987205.0,22363,11.31,74236.0,2.21,-42.69,-42.63,0,*70
1486987206.2,22364,11.38,74236.3,2.23,-44.41,-44.41,0,*7F
1486987207.46,22365,11.31,74236.0,2.21,-44.13,-43.95,0,*75
1486987208.71,22366,11.31,74232.0,2.21,-43.15,-43.09,0,*72
1486987209.94,22367,11.31,74234.5,2.21,-42.89,-42.89,0,*7E
1486987211.2,22368,11.31,74234.8,2.21,-42.69,-42.63,0,*7B
1486987212.4,22369,11.31,74236.8,2.19,-42.51,-42.51,0,*7B
1486987213.66,22370,11.31,74236.3,2.21,-43.35,-43.29,0,*75
1486987214.89,22371,11.31,74234.8,2.21,-43.35,-43.35,0,*79
1486987216.11,22372,11.38,74238.8,2.19,-44.33,-44.41,0,*74
1486987217.36,22373,11.31,74236.8,2.21,-43.15,-43.21,0,*7C
1486987218.64,22374,11.31,74238.3,2.21,-43.29,-43.29,0,*7C
1486987219.88,22375,11.38,74236.5,2.19,-44.47,-44.47,0,*76
1486987221.17,22376,11.31,74234.5,2.21,-43.67,-43.55,0,*7F
1486987222.42,22377,11.31,74236.0,2.17,-43.41,-43.21,0,*7C
1486987223.62,22378,11.31,74234.0,2.19,-44.41,-44.61,0,*79
1486987224.84,22379,11.31,74236.3,2.19,-42.89,-42.69,0,*74
1486987226.05,22380,11.31,74234.0,2.19,-42.75,-42.75,0,*7C
1486987227.25,22381,11.31,74230.5,2.19,-42.51,-42.37,0,*7D
1486987228.48,22382,11.31,74234.8,2.19,-43.55,-43.41,0,*7B
1486987229.68,22383,11.38,74236.5,2.19,-43.15,-43.01,0,*7A
1486987230.88,22384,11.31,74238.0,2.19,-43.15,-43.15,0,*78
1486987232.13,22385,11.38,74238.8,2.17,-42.83,-42.75,0,*7E
1486987233.33,22386,11.31,74234.0,2.19,-43.15,-43.15,0,*7A
1486987234.56,22387,11.31,74236.3,2.19,-42.57,-42.51,0,*7D
1486987235.82,22388,11.31,74232.5,2.19,-42.31,-42.31,0,*74
1486987237.02,22389,11.31,74234.0,2.19,-43.15,-43.15,0,*75
1486987238.25,22390,11.31,74232.8,2.19,-44.01,-43.95,0,*77
1486987239.47,22391,11.31,74234.5,2.19,-44.61,-44.67,0,*7A
1486987240.66,22392,11.31,74236.3,2.19,-43.15,-43.01,0,*7A
1486987241.86,22393,11.31,74232.0,2.19,-42.37,-42.13,0,*78
1486987243.12,22394,11.31,74234.3,2.19,-42.31,-42.19,0,*73
1486987244.32,22395,11.31,74234.3,2.19,-42.51,-42.37,0,*78
1486987245.54,22396,11.38,74236.5,2.19,-42.89,-42.57,0,*78
1486987246.76,22397,11.31,74232.5,2.19,-41.99,-41.93,0,*70
1486987248.02,22398,11.31,74236.3,2.21,-41.67,-41.49,0,*72
1486987249.27,22399,11.31,74232.5,2.21,-41.67,-41.61,0,*79
1486987250.47,22400,11.31,74234.0,2.23,-42.13,-42.13,0,*7A
1486987251.72,22401,11.31,74232.5,2.23,-42.05,-42.05,0,*7B
1486987252.97,22402,11.31,74236.5,2.23,-42.83,-42.69,0,*7C
1486987254.23,22403,11.38,74236.5,2.25,-41.87,-41.67,0,*71
1486987255.46,22404,11.31,74234.5,2.25,-42.25,-41.99,0,*7C
1486987256.74,22405,11.38,74234.8,2.25,-42.83,-43.09,0,*7A
1486987258.0,22406,11.38,74238.8,2.25,-44.27,-44.33,0,*7F
1486987259.23,22407,11.31,74236.0,2.23,-43.67,-43.75,0,*7E
1486987260.49,22408,11.31,74234.8,2.23,-42.95,-42.95,0,*72
1486987261.74,22409,11.31,74232.0,2.25,-42.45,-42.37,0,*70
1486987262.96,22410,11.31,74234.5,2.23,-43.15,-43.09,0,*76
1486987264.19,22411,11.31,74234.3,2.23,-42.51,-42.45,0,*7F
1486987265.42,22412,11.31,74232.3,2.23,-42.95,-42.89,0,*74
1486987266.67,22413,11.31,74234.3,2.23,-42.69,-42.69,0,*78
1486987267.87,22414,11.31,74228.5,2.23,-43.49,-43.35,0,*74
1486987269.07,22415,11.31,74232.5,2.23,-44.41,-44.41,0,*7E
1486987270.3,22416,11.31,74234.0,2.23,-43.55,-43.35,0,*7B
1486987271.52,22417,11.31,74232.8,2.23,-42.31,-42.13,0,*7C
1486987272.75,22418,11.38,74236.5,2.23,-41.73,-41.67,0,*76
1486987273.98,22419,11.31,74234.3,2.25,-42.37,-42.37,0,*74
1486987275.21,22420,11.31,74234.8,2.23,-43.75,-43.67,0,*7B
1486987276.46,22421,11.31,74232.0,2.25,-42.45,-42.37,0,*7A
1486987277.72,22422,11.31,74234.3,2.25,-43.67,-43.61,0,*7A
1486987278.95,22423,11.38,74236.5,2.25,-43.01,-42.89,0,*7C
1486987280.21,22424,11.31,74234.5,2.25,-42.25,-42.19,0,*75
1486987281.49,22425,11.31,74234.0,2.25,-42.45,-42.19,0,*72
1486987282.74,22426,11.31,74234.0,2.25,-42.25,-42.05,0,*7A
1486987284.0,22427,11.31,74232.0,2.25,-42.25,-42.05,0,*7B
1486987285.22,22428,11.31,74232.3,2.27,-42.57,-42.37,0,*72
1486987286.45,22429,11.31,74232.5,2.27,-42.45,-42.25,0,*73
1486987287.67,22430,11.31,74234.3,2.27,-42.45,-42.37,0,*78
1486987288.91,22431,11.31,74234.0,2.27,-42.25,-42.19,0,*73
1486987290.16,22432,11.31,74232.5,2.27,-42.05,-42.05,0,*7F
1486987291.39,22433,11.38,74236.3,2.27,-41.67,-41.61,0,*78
1486987292.64,22434,11.31,74236.3,2.29,-41.81,-41.61,0,*79
1486987293.91,22435,11.31,74232.3,2.29,-41.55,-41.35,0,*70
1486987295.19,22436,11.31,74234.5,2.29,-41.55,-41.35,0,*73
1486987296.42,22437,11.31,74234.0,2.35,-41.67,-41.49,0,*75
1486987297.69,22438,11.31,74232.8,2.33,-41.93,-41.93,0,*70
1486987298.89,22439,11.38,74236.8,2.35,-41.49,-41.29,0,*71
1486987300.1,22440,11.31,74234.0,2.35,-41.41,-41.11,0,*7C
1486987301.3,22441,11.38,74238.8,2.37,-41.41,-41.49,0,*72
1486987302.54,22442,11.38,74238.8,2.37,-43.49,-43.55,0,*74
1486987303.76,22443,11.31,74232.5,2.37,-44.13,-44.07,0,*7D
1486987304.97,22444,11.31,74232.5,2.35,-42.51,-42.63,0,*7C
1486987306.19,22445,11.31,74238.3,2.33,-42.51,-42.37,0,*7A
1486987307.39,22446,11.31,74232.3,2.35,-41.49,-41.49,0,*7F
1486987308.62,22447,11.38,74238.3,2.35,-42.31,-42.13,0,*7E
1486987309.88,22448,11.38,74236.8,2.37,-43.09,-42.95,0,*77
1486987311.11,22449,11.31,74232.8,2.37,-42.75,-42.69,0,*7F
1486987312.35,22450,11.31,74234.3,2.37,-42.51,-42.31,0,*7C
1486987313.58,22451,11.31,74232.8,2.37,-43.15,-42.95,0,*72
1486987314.81,22452,11.31,74234.5,2.37,-43.09,-42.89,0,*71
1486987316.02,22453,11.31,74232.3,2.37,-43.95,-43.95,0,*79
1486987317.22,22454,11.31,74234.0,2.37,-43.95,-43.87,0,*7D
1486987318.45,22455,11.38,74236.0,2.37,-42.31,-42.13,0,*7F
1486987319.71,22456,11.31,74234.0,2.35,-43.09,-42.95,0,*7A
1486987320.93,22457,11.31,74232.8,2.35,-43.15,-43.29,0,*70
1486987322.14,22458,11.31,74234.8,2.35,-42.75,-42.75,0,*70
1486987323.42,22459,11.31,74234.0,2.33,-42.57,-42.31,0,*77
1486987324.66,22460,11.38,74238.8,2.37,-41.73,-41.67,0,*7C
1486987325.89,22461,11.31,74232.3,2.37,-41.73,-41.55,0,*7C
1486987327.14,22462,11.38,74236.0,2.39,-42.05,-41.87,0,*7C
1486987328.43,22463,11.31,74234.0,2.39,-41.67,-41.67,0,*74
1486987329.65,22464,11.31,74234.8,2.39,-42.25,-42.25,0,*73
1486987330.91,22465,11.38,74238.8,2.39,-43.09,-43.01,0,*7A
1486987332.12,22466,11.38,74238.3,2.37,-43.61,-43.61,0,*7F
1486987333.35,22467,11.38,74234.8,2.37,-43.55,-43.75,0,*7C
1486987334.58,22468,11.31,74234.8,2.37,-43.67,-43.75,0,*72
1486987335.79,22469,11.31,74232.3,2.37,-42.63,-42.63,0,*70
1486987337.02,22470,11.38,74238.5,2.37,-43.29,-43.15,0,*77
1486987338.27,22471,11.31,74232.3,2.35,-43.55,-43.55,0,*7B
1486987339.51,22472,11.31,74232.0,2.35,-43.49,-43.55,0,*75
1486987340.73,22473,11.31,74232.5,2.35,-42.13,-41.93,0,*72
1486987341.93,22474,11.38,74238.5,2.35,-42.25,-42.13,0,*7B
1486987343.15,22475,11.38,74234.5,2.35,-41.87,-41.93,0,*7A
1486987344.4,22476,11.38,74236.5,2.39,-41.67,-41.61,0,*76
1486987345.67,22477,11.38,74236.5,2.37,-43.09,-43.09,0,*7F
1486987346.9,22478,11.38,74238.3,2.37,-43.09,-43.15,0,*7D
1486987348.11,22479,11.31,74234.5,2.37,-43.35,-43.35,0,*71
1486987349.38,22480,11.38,74234.5,2.39,-42.83,-42.69,0,*7D
1486987350.61,22481,11.38,74236.3,2.39,-43.01,-43.01,0,*78
1486987351.82,22482,11.31,74234.0,2.37,-43.75,-43.87,0,*78
1486987353.02,22483,11.38,74236.0,2.37,-44.07,-44.07,0,*74
1486987354.26,22484,11.31,74228.8,2.37,-43.15,-42.95,0,*7A
1486987355.46,22485,11.38,74234.3,2.37,-43.35,-43.15,0,*70
1486987356.69,22486,11.31,74232.8,2.37,-44.21,-44.41,0,*77
1486987357.89,22487,11.38,74236.3,2.35,-44.53,-44.53,0,*72
1486987359.14,22488,11.38,74238.8,2.33,-44.47,-44.41,0,*7D
1486987360.35,22489,11.38,74234.3,2.35,-43.61,-43.61,0,*7C
1486987361.6,22490,11.38,74236.3,2.33,-42.57,-42.51,0,*74
1486987362.83,22491,11.38,74232.8,2.35,-41.93,-41.87,0,*70
1486987364.05,22492,11.31,74234.5,2.35,-42.31,-42.25,0,*73
1486987365.26,22493,11.31,74234.8,2.35,-41.87,-41.87,0,*77
1486987366.49,22494,11.38,74236.0,2.35,-42.25,-42.05,0,*72
1486987367.7,22495,11.38,74234.0,2.37,-42.75,-42.75,0,*73
1486987368.93,22496,11.38,74236.3,2.37,-42.69,-42.51,0,*7B
1486987370.18,22497,11.38,74238.8,2.37,-42.45,-42.45,0,*71
1486987371.42,22498,11.31,74232.8,2.37,-42.95,-42.89,0,*73
1486987372.69,22499,11.38,74238.8,2.39,-42.83,-42.83,0,*71
1486987373.9,22500,11.38,74236.5,2.37,-42.75,-42.63,0,*79
1486987375.15,22501,11.38,74236.0,2.39,-43.67,-43.61,0,*77
1486987376.38,22502,11.38,74236.3,2.37,-43.55,-43.49,0,*71
1486987377.61,22503,11.38,74234.5,2.37,-42.63,-42.45,0,*79
1486987378.86,22504,11.38,74236.3,2.37,-42.45,-42.45,0,*7A
1486987380.13,22505,11.38,74236.8,2.37,-43.09,-42.95,0,*7F
1486987381.34,22506,11.38,74234.8,2.37,-42.89,-42.75,0,*7B
1486987382.56,22507,11.38,74238.8,2.37,-42.63,-42.45,0,*7D
1486987383.79,22508,11.38,74236.5,2.39,-42.89,-42.63,0,*7C
1486987385.05,22509,11.38,74236.3,2.37,-42.45,-42.31,0,*74
1486987386.3,22510,11.31,74234.3,2.39,-42.63,-42.57,0,*76
1486987387.55,22511,11.38,74236.8,2.39,-42.25,-42.19,0,*7F
1486987388.79,22512,11.31,74232.3,2.41,-42.57,-42.63,0,*7B
1486987390.02,22513,11.38,74236.3,2.41,-42.51,-42.31,0,*7B
1486987391.23,22514,11.38,74236.8,2.41,-43.35,-43.15,0,*78
1486987392.43,22515,11.31,74236.3,2.41,-44.41,-44.27,0,*7B
1486987393.66,22516,11.38,74238.3,2.41,-43.41,-43.21,0,*7E
1486987394.89,22517,11.38,74234.8,2.39,-43.49,-43.49,0,*76
1486987396.15,22518,11.31,74232.3,2.39,-44.67,-44.87,0,*77
1486987397.35,22519,11.31,74232.0,2.37,-45.21,-45.33,0,*75
1486987398.56,22520,11.31,74234.5,2.37,-44.53,-44.41,0,*7F
1486987399.79,22521,11.38,74238.5,2.37,-44.93,-44.79,0,*79
1486987401.05,22522,11.31,74234.0,2.33,-45.07,-44.87,0,*73
1486987402.27,22523,11.31,74234.5,2.35,-44.13,-43.95,0,*74
1486987403.56,22524,11.31,74234.5,2.33,-42.95,-42.83,0,*7B
1486987404.83,22525,11.38,74236.0,2.33,-44.13,-44.13,0,*7D
1486987406.09,22526,11.31,74236.0,2.33,-43.75,-43.55,0,*7C
1486987407.31,22527,11.38,74238.5,2.33,-43.35,-43.01,0,*78
1486987408.54,22528,11.38,74238.0,2.33,-43.15,-43.15,0,*70
1486987409.82,22529,11.31,74236.0,2.33,-43.55,-43.55,0,*71
1486987411.05,22530,11.38,74238.0,2.35,-42.31,-42.25,0,*7A
1486987412.27,22531,11.31,74234.0,2.35,-42.63,-42.45,0,*7A
1486987413.49,22532,11.31,74234.0,2.33,-42.51,-42.37,0,*7B
1486987414.72,22533,11.31,74232.0,2.35,-42.45,-42.25,0,*7A
1486987415.92,22534,11.31,74234.3,2.35,-42.25,-42.13,0,*7E
1486987417.15,22535,11.31,74234.0,2.35,-43.55,-43.49,0,*77
1486987418.37,22536,11.38,74236.3,2.35,-43.15,-43.29,0,*76
1486987419.57,22537,11.38,74236.5,2.35,-42.89,-42.75,0,*7B
1486987420.82,22538,11.38,74236.5,2.35,-42.69,-42.69,0,*77
1486987422.05,22539,11.38,74236.8,2.35,-43.49,-43.55,0,*7B
1486987423.25,22540,11.38,74238.8,2.35,-42.89,-42.89,0,*78
1486987424.46,22541,11.38,74236.5,2.35,-43.49,-43.35,0,*72
1486987425.67,22542,11.38,74236.8,2.37,-42.63,-42.51,0,*79
1486987426.87,22543,11.31,74234.5,2.37,-43.15,-43.35,0,*7B
1486987428.08,22544,11.38,74236.5,2.35,-43.49,-43.49,0,*7C
1486987429.28,22545,11.38,74236.3,2.35,-43.49,-43.35,0,*76
1486987430.53,22546,11.38,74234.8,2.35,-43.29,-43.29,0,*7E
1486987431.74,22547,11.38,74236.5,2.35,-42.89,-42.75,0,*7C
1486987432.97,22548,11.38,74236.8,2.37,-43.15,-43.09,0,*7F
1486987434.22,22549,11.31,74234.8,2.39,-44.01,-43.87,0,*74
1486987435.44,22550,11.38,74238.5,2.35,-44.13,-44.07,0,*7C
1486987436.69,22551,11.38,74238.3,2.33,-43.21,-43.15,0,*79
1486987437.91,22552,11.38,74238.8,2.35,-44.13,-44.07,0,*7E
1486987439.15,22553,11.38,74236.5,2.33,-44.87,-44.87,0,*7C
1486987440.42,22554,11.38,74238.0,2.33,-44.13,-44.01,0,*78
1486987441.68,22555,11.31,74236.3,2.33,-43.61,-43.55,0,*7D
1486987442.91,22556,11.38,74236.5,2.33,-43.95,-43.95,0,*79
1486987444.18,22557,11.38,74238.0,2.33,-44.47,-44.47,0,*78
1486987445.41,22558,11.38,74238.0,2.33,-43.41,-43.15,0,*76
1486987446.7,22559,11.31,74232.5,2.33,-42.95,-42.95,0,*76
1486987447.96,22560,11.38,74236.3,2.29,-43.01,-42.95,0,*7B
1486987449.22,22561,11.38,74238.0,2.29,-43.01,-42.95,0,*7A
1486987450.49,22562,11.38,74238.5,2.29,-43.21,-43.21,0,*75
1486987451.77,22563,11.38,74236.5,2.29,-42.69,-42.69,0,*74
1486987453.02,22564,11.38,74236.8,2.33,-43.01,-43.21,0,*7A
1486987454.28,22565,11.31,74234.0,2.33,-43.81,-43.95,0,*7C
1486987455.56,22566,11.38,74238.8,2.33,-44.21,-44.21,0,*7A
1486987456.83,22567,11.31,74232.5,2.33,-44.47,-44.47,0,*7B
1486987458.05,22568,11.38,74234.5,2.29,-44.61,-44.61,0,*7F
1486987459.33,22569,11.38,74236.0,2.29,-42.95,-42.83,0,*79
1486987460.56,22570,11.31,74232.0,2.29,-42.37,-42.51,0,*76
1486987461.83,22571,11.38,74232.8,2.33,-42.57,-42.69,0,*71
1486987463.08,22572,11.38,74238.3,2.33,-43.35,-43.21,0,*7A
1486987464.33,22573,11.38,74234.5,2.29,-43.81,-43.75,0,*7E
1486987465.57,22574,11.38,74238.8,2.29,-43.35,-43.21,0,*77
1486987466.84,22575,11.31,74234.5,2.29,-42.69,-42.57,0,*7E
1486987468.1,22576,11.38,74232.0,2.33,-43.15,-42.95,0,*72
1486987469.33,22577,11.31,74234.3,2.33,-43.01,-43.01,0,*7A
1486987470.56,22578,11.38,74236.3,2.35,-42.75,-42.69,0,*7E
1486987471.82,22579,11.38,74236.5,2.33,-42.95,-42.75,0,*7A
1486987473.07,22580,11.38,74238.5,2.35,-42.45,-42.45,0,*74
1486987474.32,22581,11.31,74234.8,2.33,-43.15,-42.95,0,*7A
1486987475.55,22582,11.38,74236.5,2.37,-42.31,-42.25,0,*71
1486987476.79,22583,11.38,74236.0,2.33,-42.75,-42.75,0,*71
1486987477.99,22584,11.38,74234.8,2.35,-42.75,-42.63,0,*77
1486987479.22,22585,11.38,74236.5,2.35,-43.29,-43.15,0,*7E
1486987480.44,22586,11.38,74236.3,2.35,-43.67,-43.87,0,*7C
1486987481.65,22587,11.38,74236.8,2.35,-43.61,-43.75,0,*76
1486987482.88,22588,11.38,74238.0,2.35,-42.31,-42.25,0,*79
1486987484.1,22589,11.31,74232.0,2.35,-43.35,-43.29,0,*70
1486987485.3,22590,11.31,74232.5,2.35,-43.87,-43.75,0,*78
1486987486.5,22591,11.31,74234.5,2.35,-43.35,-43.49,0,*7F
1486987487.76,22592,11.38,74234.5,2.33,-42.95,-42.63,0,*78
1486987488.98,22593,11.38,74234.0,2.35,-43.55,-43.49,0,*7B
1486987490.23,22594,11.38,74236.0,2.33,-43.21,-43.15,0,*70
1486987491.46,22595,11.31,74234.0,2.35,-42.45,-42.25,0,*76
1486987492.71,22596,11.38,74238.8,2.35,-42.45,-42.31,0,*70
1486987493.94,22597,11.38,74236.5,2.35,-42.31,-42.25,0,*77
1486987495.17,22598,11.38,74232.5,2.35,-42.89,-42.69,0,*73
1486987496.4,22599,11.31,74232.5,2.37,-42.69,-42.63,0,*74
1486987497.61,22600,11.31,74232.0,2.37,-42.63,-42.51,0,*7C
1486987498.81,22601,11.38,74232.0,2.37,-42.25,-42.13,0,*79
1486987500.07,22602,11.31,74234.3,2.37,-42.69,-42.69,0,*7F
1486987501.32,22603,11.31,74232.5,2.39,-42.37,-42.19,0,*7C
1486987502.58,22604,11.38,74234.0,2.39,-43.09,-43.01,0,*7F
1486987503.82,22605,11.38,74236.5,2.39,-42.45,-42.37,0,*73
1486987505.08,22606,11.38,74236.0,2.39,-42.37,-42.19,0,*79
1486987506.33,22607,11.38,74238.3,2.39,-42.19,-41.99,0,*7F
1486987507.58,22608,11.38,74236.5,2.39,-42.63,-42.57,0,*7C
1486987508.82,22609,11.31,74234.0,2.41,-42.37,-42.31,0,*73
1486987510.04,22610,11.38,74234.3,2.43,-42.51,-42.37,0,*7F
1486987511.27,22611,11.38,74232.0,2.41,-42.57,-42.37,0,*7A
1486987512.54,22612,11.38,74234.3,2.41,-42.95,-42.95,0,*7F
1486987513.75,22613,11.38,74234.8,2.41,-42.51,-42.51,0,*7E
1486987514.97,22614,11.31,74234.3,2.41,-42.57,-42.51,0,*7F
1486987516.23,22615,11.31,74230.3,2.45,-43.09,-43.09,0,*7C
1486987517.44,22616,11.31,74230.8,2.41,-42.75,-42.63,0,*7C
1486987518.65,22617,11.38,74234.0,2.41,-42.63,-42.51,0,*7B
1486987519.93,22618,11.31,74234.5,2.43,-42.95,-42.57,0,*79
1486987521.19,22619,11.38,74232.5,2.41,-42.31,-42.19,0,*7E
1486987522.42,22620,11.38,74236.8,2.43,-43.15,-43.01,0,*79
1486987523.7,22621,11.31,74234.3,2.43,-43.55,-43.21,0,*7E
1486987524.96,22622,11.38,74234.3,2.43,-43.01,-42.83,0,*75
1486987526.2,22623,11.31,74234.0,2.41,-42.37,-42.19,0,*71
1486987527.43,22624,11.38,74234.3,2.41,-42.31,-42.13,0,*7A
1486987528.7,22625,11.31,74232.3,2.43,-42.57,-42.57,0,*79
1486987529.95,22626,11.38,74234.5,2.41,-43.01,-42.95,0,*74
1486987531.18,22627,11.38,74232.5,2.43,-42.13,-41.99,0,*7A
1486987532.42,22628,11.38,74238.5,2.43,-42.13,-41.99,0,*75
1486987533.7,22629,11.31,74232.5,2.43,-41.93,-41.81,0,*76
1486987534.96,22630,11.38,74234.0,2.43,-42.19,-41.99,0,*76
1486987536.25,22631,11.31,74230.3,2.43,-42.31,-42.19,0,*76
1486987537.47,22632,11.38,74234.8,2.45,-42.31,-42.13,0,*79
1486987538.7,22633,11.38,74236.0,2.47,-42.51,-42.51,0,*7A
1486987539.92,22634,11.38,74234.0,2.45,-42.13,-41.93,0,*74
1486987541.18,22635,11.38,74232.3,2.47,-41.73,-41.67,0,*79
1486987542.43,22636,11.38,74232.0,2.47,-42.13,-42.05,0,*78
1486987543.68,22637,11.38,74232.5,2.47,-42.51,-42.57,0,*78
1486987544.9,22638,11.38,74234.8,2.47,-42.13,-42.13,0,*71
1486987546.13,22639,11.38,74234.8,2.49,-42.51,-42.45,0,*7B
1486987547.35,22640,11.38,74232.0,2.49,-41.99,-41.81,0,*79
1486987548.6,22641,11.38,74236.3,2.49,-42.83,-42.69,0,*75
1486987549.83,22642,11.31,74232.8,2.49,-42.89,-42.69,0,*7C
1486987551.06,22643,11.31,74232.5,2.49,-43.01,-42.83,0,*78
1486987552.29,22644,11.38,74232.5,2.49,-42.45,-42.37,0,*71
1486987553.5,22645,11.38,74232.0,2.49,-42.51,-42.63,0,*74
1486987554.75,22646,11.31,74232.0,2.47,-42.75,-42.69,0,*75
1486987556.0,22647,11.38,74234.5,2.47,-42.57,-42.51,0,*7F
1486987557.26,22648,11.38,74234.8,2.47,-42.95,-42.75,0,*78
1486987558.48,22649,11.31,74230.8,2.49,-42.89,-42.83,0,*73
1486987559.71,22650,11.38,74236.0,2.49,-42.45,-42.37,0,*74
1486987560.93,22651,11.38,74234.8,2.49,-42.83,-42.51,0,*7F
1486987562.14,22652,11.38,74232.0,2.49,-42.63,-42.51,0,*72
1486987563.39,22653,11.31,74232.8,2.49,-42.45,-42.45,0,*72
1486987564.61,22654,11.38,74234.3,2.49,-42.89,-42.83,0,*7F
1486987565.86,22655,11.31,74230.8,2.49,-43.09,-42.83,0,*77
1486987567.12,22656,11.38,74234.5,2.49,-42.69,-42.69,0,*77
1486987568.35,22657,11.38,74232.3,2.49,-43.09,-42.89,0,*7F
1486987569.57,22658,11.38,74236.0,2.49,-43.29,-43.01,0,*73
1486987570.82,22659,11.38,74232.3,2.47,-42.89,-42.69,0,*78
1486987572.05,22660,11.38,74234.0,2.47,-43.15,-43.15,0,*7C
1486987573.27,22661,11.38,74234.5,2.47,-43.49,-43.49,0,*7D
1486987574.51,22662,11.31,74232.8,2.47,-43.49,-43.35,0,*75
1486987575.76,22663,11.38,74236.5,2.47,-43.29,-43.15,0,*70
1486987576.98,22664,11.38,74236.3,2.49,-42.63,-42.69,0,*7C
1486987578.26,22665,11.38,74234.0,2.47,-42.69,-42.69,0,*79
1486987579.48,22666,11.38,74232.3,2.47,-43.15,-43.15,0,*7A
1486987580.77,22667,11.31,74234.3,2.47,-43.09,-42.95,0,*7F
1486987582.01,22668,11.38,74232.0,2.47,-42.51,-42.45,0,*71
1486987583.24,22669,11.38,74232.3,2.49,-42.89,-42.83,0,*71
1486987584.44,22670,11.38,74236.0,2.49,-42.63,-42.51,0,*72
1486987585.67,22671,11.38,74232.0,2.49,-42.25,-42.19,0,*7D
1486987586.93,22672,11.38,74234.5,2.49,-42.19,-42.19,0,*71
1486987588.17,22673,11.38,74234.5,2.51,-43.41,-43.41,0,*79
1486987589.4,22674,11.38,74234.3,2.49,-42.69,-42.51,0,*7C
1486987590.62,22675,11.38,74232.0,2.51,-42.51,-42.37,0,*7F
1486987591.85,22676,11.38,74234.3,2.49,-42.83,-42.63,0,*7B
1486987593.1,22677,11.38,74232.5,2.49,-42.45,-42.45,0,*74
1486987594.32,22678,11.38,74234.5,2.51,-42.37,-42.25,0,*71
1486987595.55,22679,11.38,74234.5,2.51,-42.37,-42.25,0,*70
1486987596.81,22680,11.38,74232.5,2.51,-42.19,-41.99,0,*7E
1486987598.06,22681,11.38,74232.8,2.51,-42.37,-42.19,0,*78
1486987599.26,22682,11.38,74234.0,2.53,-41.73,-41.61,0,*76
1486987600.48,22683,11.38,74234.8,2.53,-41.81,-41.61,0,*7A
1486987601.71,22684,11.38,74232.3,2.57,-41.93,-41.87,0,*72
1486987602.96,22685,11.31,74230.8,2.57,-42.69,-42.57,0,*7B
1486987604.21,22686,11.38,74232.8,2.57,-42.69,-42.69,0,*75
1486987605.43,22687,11.38,74234.3,2.57,-42.31,-42.25,0,*71
1486987606.66,22688,11.38,74234.0,2.57,-42.31,-42.13,0,*7B
1486987607.86,22689,11.31,74230.8,2.57,-42.51,-42.51,0,*7A
1486987609.12,22690,11.31,74232.8,2.57,-43.09,-42.95,0,*76
1486987610.31,22691,11.38,74232.3,2.57,-42.51,-42.37,0,*73
1486987611.57,22692,11.31,74230.8,2.59,-42.37,-42.31,0,*78
1486987612.82,22693,11.38,74234.0,2.61,-42.19,-42.05,0,*79
1486987614.1,22694,11.38,74234.3,2.59,-42.31,-42.31,0,*78
1486987615.33,22695,11.38,74232.0,2.59,-42.25,-42.25,0,*79
1486987616.55,22696,11.31,74230.3,2.59,-42.51,-42.37,0,*7A
1486987617.8,22697,11.38,74232.3,2.59,-42.57,-42.51,0,*7D
1486987619.06,22698,11.38,74234.3,2.59,-42.13,-42.05,0,*73
1486987620.25,22699,11.38,74232.0,2.61,-41.61,-41.49,0,*74
1486987621.45,22700,11.31,74228.5,2.61,-41.99,-41.99,0,*7F
1486987622.67,22701,11.38,74234.0,2.61,-41.87,-41.81,0,*78
1486987623.92,22702,11.38,74232.0,2.63,-42.25,-42.45,0,*79
1486987625.15,22703,11.38,74232.8,2.65,-42.19,-42.13,0,*72
1486987626.42,22704,11.38,74234.3,2.63,-42.19,-42.05,0,*74
1486987627.65,22705,11.31,74232.0,2.63,-42.25,-42.25,0,*78
1486987628.87,22706,11.31,74232.8,2.65,-42.63,-42.57,0,*7A
1486987630.12,22707,11.31,74230.8,2.65,-41.93,-41.81,0,*7F
1486987631.35,22708,11.38,74232.3,2.65,-42.83,-42.75,0,*7A
1486987632.61,22709,11.38,74234.5,2.65,-43.55,-43.55,0,*72
1486987633.81,22710,11.38,74234.8,2.65,-42.51,-42.25,0,*79
1486987635.04,22711,11.38,74232.5,2.65,-42.25,-42.19,0,*74
1486987636.31,22712,11.38,74234.0,2.63,-42.45,-42.45,0,*7E
1486987637.51,22713,11.31,74230.3,2.65,-42.37,-42.37,0,*79
1486987638.74,22714,11.38,74232.8,2.65,-42.83,-42.75,0,*77
1486987639.99,22715,11.38,74232.3,2.65,-42.95,-42.83,0,*78
1486987641.24,22716,11.38,74232.8,2.65,-42.45,-42.45,0,*7C
1486987642.47,22717,11.38,74232.3,2.65,-41.81,-41.73,0,*70
1486987643.72,22718,11.31,74230.0,2.65,-41.93,-41.93,0,*72
1486987645.0,22719,11.38,74232.5,2.69,-42.31,-42.31,0,*7F
1486987646.25,22720,11.38,74232.0,2.67,-42.57,-42.37,0,*7D
1486987647.52,22721,11.31,74232.0,2.67,-42.69,-42.57,0,*77
1486987648.79,22722,11.31,74232.5,2.67,-42.69,-42.69,0,*79
1486987650.02,22723,11.31,74230.5,2.67,-42.89,-42.75,0,*7B
1486987651.25,22724,11.38,74234.8,2.67,-42.51,-42.37,0,*7F
1486987652.5,22725,11.38,74234.8,2.67,-43.09,-42.89,0,*77
1486987653.75,22726,11.38,74232.5,2.69,-42.75,-42.69,0,*7E
1486987654.98,22727,11.38,74232.8,2.67,-42.37,-42.51,0,*7C
1486987656.21,22728,11.31,74228.8,2.69,-41.87,-41.87,0,*7D
1486987657.44,22729,11.31,74228.8,2.69,-42.51,-42.37,0,*7C
1486987658.7,22730,11.38,74234.8,2.67,-41.87,-41.67,0,*74
1486987659.96,22731,11.38,74234.8,2.69,-41.35,-41.29,0,*78
1486987661.19,22732,11.31,74228.8,2.71,-41.41,-41.23,0,*7B
1486987662.43,22733,11.31,74230.8,2.73,-42.25,-42.25,0,*7C
1486987663.66,22734,11.38,74230.3,2.73,-41.61,-41.61,0,*7B
1486987664.92,22735,11.31,74230.0,2.73,-41.67,-41.61,0,*7C
1486987666.15,22736,11.38,74234.0,2.73,-41.61,-41.61,0,*79
1486987667.41,22737,11.31,74232.8,2.75,-42.19,-42.19,0,*7E
1486987668.61,22738,11.38,74232.0,2.79,-42.37,-42.37,0,*7D
1486987669.84,22739,11.31,74228.5,2.79,-42.57,-42.51,0,*7A
1486987671.07,22740,11.38,74232.5,2.75,-43.21,-43.35,0,*7B
1486987672.28,22741,11.38,74232.3,2.75,-43.35,-43.35,0,*7F
1486987673.51,22742,11.31,74228.5,2.75,-43.21,-43.15,0,*7B
1486987674.72,22743,11.38,74232.0,2.75,-42.75,-42.75,0,*7D
1486987676.0,22744,11.31,74228.0,2.73,-43.29,-43.09,0,*7E
1486987677.27,22745,11.38,74232.3,2.73,-43.01,-43.09,0,*75
1486987678.56,22746,11.31,74232.5,2.73,-43.09,-43.09,0,*7E
1486987679.79,22747,11.31,74228.5,2.71,-42.69,-42.63,0,*77
1486987680.99,22748,11.31,74230.8,2.75,-43.15,-43.01,0,*73
1486987682.25,22749,11.38,74234.3,2.73,-43.09,-42.89,0,*78
1486987683.51,22750,11.38,74234.3,2.73,-42.83,-42.89,0,*73
1486987684.77,22751,11.38,74232.3,2.73,-42.83,-42.63,0,*76
1486987686.03,22752,11.31,74230.8,2.73,-42.25,-42.31,0,*7E
1486987687.29,22753,11.31,74228.8,2.73,-42.13,-42.05,0,*7D
1486987688.55,22754,11.31,74230.0,2.73,-42.05,-41.99,0,*7B
1486987689.78,22755,11.38,74234.3,2.75,-42.05,-42.25,0,*78
1486987691.0,22756,11.38,74230.0,2.79,-41.55,-41.49,0,*78
1486987692.23,22757,11.38,74234.0,2.79,-41.55,-41.49,0,*79
1486987693.46,22758,11.38,74236.0,2.79,-42.19,-42.13,0,*71
1486987694.69,22759,11.38,74232.0,2.79,-41.93,-41.99,0,*70
1486987695.97,22760,11.31,74230.8,2.81,-42.69,-42.57,0,*7A
1486987697.25,22761,11.38,74234.3,2.81,-42.57,-42.69,0,*7B
1486987698.51,22762,11.38,74232.0,2.81,-42.89,-42.95,0,*78
1486987699.77,22763,11.31,74230.0,2.81,-42.89,-42.95,0,*79
1486987701.01,22764,11.38,74234.0,2.81,-42.75,-42.75,0,*73
1486987702.24,22765,11.31,74230.0,2.81,-42.51,-42.37,0,*72
1486987703.5,22766,11.38,74232.8,2.81,-42.19,-42.13,0,*7B